Hourly Data Report for November 22, 2004

TORONTO CITY
ONTARIO

43°40'00.000" N
79°24'00.000" W
112.50 m
6158355
71508
XTO

Download Data

Hourly Data (November 2004)
Hourly Data Report for November 22, 2004
TIME
LST
Temp Definition
°C
Dew Point Definition
°C
Rel Hum Definition
%
Precip. Amount Definition
mm

Wind Dir Definition
10's deg

Wind Spd Definition
km/h
Visibility Definition
km
Stn Press Definition
kPa
Hmdx Definition


Wind Chill Definition


Weather Definition


00:00 5.8 0.9 71   LegendMM LegendMM LegendMM 100.84     LegendNANA
01:00 6.0 1.6 73   LegendMM LegendMM LegendMM 100.83     LegendNANA
02:00 6.0 1.8 74   LegendMM LegendMM LegendMM 100.77     LegendNANA
03:00 5.7 2.1 78   LegendMM LegendMM LegendMM 100.76     LegendNANA
04:00 5.6 2.1 78   LegendMM LegendMM LegendMM 100.65     LegendNANA
05:00 5.7 2.2 78   LegendMM LegendMM LegendMM 100.69     LegendNANA
06:00 5.3 1.9 79   LegendMM LegendMM LegendMM 100.72     LegendNANA
07:00 4.8 2.0 82   LegendMM LegendMM LegendMM 100.70     LegendNANA
08:00 5.1 2.1 81   LegendMM LegendMM LegendMM 100.73     LegendNANA
09:00 6.0 1.7 74   LegendMM LegendMM LegendMM 100.76     LegendNANA
10:00 6.2 0.7 68   LegendMM LegendMM LegendMM 100.73     LegendNANA
11:00 7.1 0.5 63   LegendMM LegendMM LegendMM 100.71     LegendNANA
12:00 8.1 0.0 57   LegendMM LegendMM LegendMM 100.63     LegendNANA
13:00 9.0 -1.2 49   LegendMM LegendMM LegendMM 100.55     LegendNANA
14:00 8.8 -2.0 47   LegendMM LegendMM LegendMM 100.52     LegendNANA
15:00 7.9 2.6 69   LegendMM LegendMM LegendMM 100.48     LegendNANA
16:00 7.3 2.0 69   LegendMM LegendMM LegendMM 100.47     LegendNANA
17:00 6.9 2.1 71   LegendMM LegendMM LegendMM 100.43     LegendNANA
18:00 7.0 1.8 69   LegendMM LegendMM LegendMM 100.44     LegendNANA
19:00 6.4 0.1 64   LegendMM LegendMM LegendMM 100.44     LegendNANA
20:00 5.6 0.1 68   LegendMM LegendMM LegendMM 100.43     LegendNANA
21:00 5.5 0.7 71   LegendMM LegendMM LegendMM 100.42     LegendNANA
22:00 4.8 0.2 72   LegendMM LegendMM LegendMM 100.38     LegendNANA
23:00 4.5 0.4 75   LegendMM LegendMM LegendMM 100.34     LegendNANA

Notes on Data Quality.

Legend

  • E = Estimated
  • M = Missing
  • NA = Not Available*
  • [empty] = Indicates an unobserved value
Date modified: